Theta_e
318 318 318 318 319 319 319 320 321 321 321 323 325 324 324 322 318 320 321 319 317 315 313 312 311 309 307 306 306 306 306 307 307 307 307 307 306 306 306 305 305 305 305 305 305 304 304 304 304 304 304 304 304 304 305 306 306 307 308 309 309 309 310 310 310 310 310 312 314 317 319 321 322 324 324 325 325 325 325 326 327 327 327 327 327 327 328
318 318 318 318 318 318 318 319 319 320 321 322 323 323 323 324 322 321 320 318 316 314 311 310 308 306 306 305 305 305 305 306 306 307 307 307 306 305 305 305 305 305 304 304 304 304 304 304 304 304 304 304 304 303 303 304 305 306 307 308 309 309 309 309 309 309 309 310 311 314 318 320 321 322 324 325 324 324 325 325 326 326 325 326 326 327 328
318 318 318 318 318 317 317 317 317 318 319 320 321 321 320 321 321 319 317 315 313 310 308 307 306 305 305 304 304 305 304 305 306 306 307 306 306 305 305 305 305 304 304 304 304 304 304 303 303 303 304 304 304 303 303 303 304 305 307 308 308 308 309 308 308 308 308 309 309 310 314 317 319 321 322 324 324 325 325 324 325 326 325 324 325 326 327
318 318 318 318 317 317 317 316 315 317 318 318 318 318 318 319 318 315 314 313 310 307 307 306 305 305 305 304 304 304 304 305 305 305 305 305 305 305 304 304 304 304 304 304 303 303 303 303 303 303 303 304 304 303 303 303 303 304 306 307 308 308 308 308 308 308 308 308 308 308 310 314 317 318 320 321 323 324 325 325 325 326 325 323 323 325 326
318 318 318 319 318 318 318 315 313 314 316 316 315 316 316 316 316 315 315 312 308 307 307 306 305 305 305 304 304 303 303 304 304 304 304 304 304 303 303 304 304 303 303 303 303 303 303 303 303 303 303 303 304 303 303 303 303 303 304 306 307 307 307 307 307 307 307 307 308 307 308 309 312 314 316 318 320 322 323 324 324 325 325 325 325 325 325
318 318 318 319 320 320 317 312 311 313 315 314 315 315 315 314 313 313 312 309 306 307 307 305 305 305 304 304 303 303 303 303 303 303 303 303 303 303 303 303 303 303 303 302 302 302 302 303 303 302 303 303 303 303 303 303 303 302 303 305 305 306 306 306 306 307 307 307 307 307 307 307 308 310 312 314 316 318 319 321 322 324 324 325 325 325 325
318 317 318 319 320 318 313 310 311 312 312 312 312 312 312 312 311 310 308 307 306 307 306 305 304 304 303 303 302 302 302 302 302 302 302 302 302 302 302 302 302 302 302 302 302 302 302 302 302 302 303 303 303 303 303 303 303 302 303 304 305 305 305 306 306 306 306 306 306 306 306 306 307 308 309 310 311 313 315 316 318 320 321 322 323 324 324
318 317 318 320 317 312 310 310 311 312 312 312 312 311 310 310 310 309 307 306 306 305 304 303 303 302 302 302 302 302 302 302 302 302 302 301 301 302 302 301 301 301 301 301 301 301 301 301 301 302 302 303 303 303 303 303 303 302 302 303 304 304 304 305 305 305 305 305 306 306 306 306 306 306 307 307 308 309 310 311 312 315 317 318 319 321 322
317 317 317 315 313 312 312 311 311 312 313 313 313 312 308 308 309 308 306 305 305 304 303 303 302 302 302 302 301 301 301 301 301 301 301 301 301 301 301 301 301 300 300 301 301 301 301 301 301 302 302 302 302 303 302 303 303 302 302 302 303 303 303 304 304 304 304 304 305 305 305 305 305 305 305 305 306 307 307 308 309 310 311 313 315 316 318
316 316 315 314 315 316 314 311 311 312 312 313 312 312 309 307 307 307 306 305 304 303 303 302 302 303 303 302 302 301 301 301 301 301 301 301 301 301 301 301 301 300 300 301 301 301 300 300 301 301 302 302 302 302 302 302 302 302 302 302 302 302 303 303 303 303 303 303 304 304 304 304 304 304 305 304 305 305 305 306 307 307 308 309 310 311 312
315 316 317 316 317 316 313 311 312 312 312 312 313 314 312 308 306 306 306 305 304 303 303 303 303 305 305 302 301 302 302 302 301 301 301 301 301 301 301 300 300 300 300 300 300 300 300 300 300 301 301 301 302 302 302 302 302 302 302 302 302 302 302 302 302 302 302 302 303 303 303 304 304 304 304 304 304 304 304 304 305 306 307 307 307 308 309
316 316 316 315 313 312 312 312 312 311 311 312 313 315 313 308 306 306 305 304 304 303 303 304 305 306 306 303 301 302 302 302 301 301 301 301 301 300 300 299 299 300 300 300 300 300 300 300 300 301 301 301 301 301 302 302 301 301 302 301 301 301 301 302 301 301 302 302 302 302 303 303 303 303 303 303 303 304 304 304 304 305 306 306 306 307 307
314 315 315 313 310 310 311 312 311 311 311 312 313 314 312 308 306 306 305 304 304 303 304 305 305 306 305 303 302 302 302 301 301 301 301 301 300 300 299 298 299 299 299 299 300 300 300 300 300 300 300 301 301 301 301 301 301 301 301 301 301 301 301 301 301 301 301 302 302 301 302 302 302 303 303 303 303 303 303 303 303 304 304 305 305 305 306
313 313 313 312 310 309 310 311 311 311 312 312 312 311 309 307 307 306 305 305 304 304 305 305 304 304 303 302 302 301 301 301 301 301 301 300 300 299 298 298 298 299 299 299 300 300 300 300 300 300 300 300 300 300 301 301 300 300 301 301 300 300 300 300 301 301 301 301 301 301 301 301 301 301 301 302 302 302 302 303 303 303 303 303 303 304 305
312 312 312 312 311 310 309 310 310 311 311 311 310 310 308 308 307 306 306 305 305 305 304 303 303 303 302 302 302 302 302 302 301 301 300 300 299 299 298 297 297 298 299 299 300 300 300 300 300 300 300 300 300 300 300 300 300 300 300 300 300 300 300 300 300 301 300 301 301 301 301 301 301 300 300 300 301 301 301 301 301 302 302 302 302 303 303
311 312 311 310 309 309 309 310 310 310 310 309 309 310 309 308 307 307 306 305 305 304 303 303 303 302 302 302 302 302 301 301 301 301 300 299 299 298 297 296 296 297 298 299 300 300 300 300 300 300 300 300 300 300 300 300 300 300 300 300 300 300 299 299 300 300 300 300 300 300 300 300 300 300 300 300 300 300 300 300 300 300 300 300 301 301 302
308 310 308 306 306 307 308 309 309 309 309 309 309 309 308 307 307 306 306 305 304 303 302 303 303 303 303 302 301 301 301 301 301 300 299 299 298 297 297 296 297 297 298 298 299 299 299 300 300 300 300 300 300 300 300 300 300 300 299 299 299 299 299 299 299 299 300 300 300 300 300 300 300 300 299 299 299 299 299 300 299 299 299 299 300 299 300
305 306 305 305 306 306 306 307 308 308 308 308 308 308 308 307 307 306 305 304 303 302 302 303 303 302 302 301 301 301 301 300 300 300 299 298 298 297 296 297 298 298 298 298 299 299 299 299 299 299 300 300 300 300 300 299 299 299 299 299 299 299 299 299 299 299 299 300 300 300 299 299 299 299 299 299 298 298 298 299 299 299 299 299 299 299 298
307 307 305 305 306 305 305 306 306 306 307 307 307 307 307 306 306 306 305 303 302 302 303 302 302 301 301 301 301 301 300 300 300 300 299 298 297 297 297 297 298 298 298 298 298 298 298 298 298 298 298 299 299 299 300 300 299 299 299 299 299 299 299 299 298 299 299 299 300 300 299 299 298 298 299 299 298 297 297 297 298 298 298 298 298 298 298
307 306 304 304 305 305 305 305 305 305 305 306 306 306 305 305 305 305 304 303 302 302 302 302 301 301 301 301 301 300 300 300 300 299 299 298 297 297 297 297 298 298 298 298 297 297 297 297 297 297 297 297 298 299 299 299 299 299 298 298 298 299 299 298 298 298 298 299 299 299 299 299 298 298 298 298 297 296 296 296 296 297 298 298 298 298 298
305 305 304 304 304 304 304 305 304 304 304 304 305 305 305 305 305 304 303 303 302 302 302 301 301 301 301 301 300 300 300 300 299 299 299 298 297 297 297 297 297 297 297 297 297 297 297 297 297 297 296 296 297 298 299 299 299 299 298 298 298 298 298 298 298 298 298 298 299 299 299 299 299 298 298 298 297 297 296 296 296 296 296 297 297 298 298
305 305 305 305 306 305 304 304 304 304 304 304 304 304 304 304 304 303 303 303 302 302 302 301 301 301 301 301 300 300 300 300 299 299 298 297 297 297 297 298 297 297 297 297 297 297 297 297 297 296 296 296 296 297 299 299 299 298 298 298 298 298 298 298 298 298 298 298 298 299 299 299 299 298 298 298 297 297 297 296 295 295 295 295 296 297 298
307 306 305 306 307 305 303 303 304 304 304 304 304 304 304 304 304 303 303 302 302 301 301 301 300 300 301 301 300 300 299 299 299 299 298 297 297 297 297 298 297 297 297 297 297 297 297 297 296 296 296 296 295 296 298 299 299 298 298 298 298 298 298 298 298 298 298 298 298 298 298 298 298 298 298 298 298 297 297 296 296 295 295 295 295 296 297
307 306 306 306 306 305 303 303 304 303 304 304 304 304 304 304 303 303 302 302 301 301 301 301 300 300 300 301 300 300 300 300 299 298 297 297 296 297 297 297 297 297 297 297 297 297 297 296 296 297 297 297 296 296 298 299 299 298 298 298 298 298 298 298 298 298 298 298 298 298 298 298 298 298 297 298 298 297 297 297 296 296 295 295 295 295 296
307 306 306 306 305 304 303 303 303 303 304 304 303 303 303 303 302 302 301 301 301 301 301 301 301 300 300 300 300 300 300 299 298 297 297 296 296 297 296 296 296 296 296 296 297 297 296 296 296 298 298 297 296 296 298 299 299 299 298 299 298 298 298 298 298 298 298 298 298 297 297 297 297 297 297 297 297 297 297 296 296 296 296 295 294 294 295
306 305 305 304 303 303 303 303 303 303 303 303 303 303 302 302 301 301 301 300 300 300 300 300 300 300 300 300 300 300 300 299 298 297 297 297 297 297 296 296 296 296 296 296 296 295 295 296 297 298 299 297 296 296 298 299 299 299 298 299 298 298 297 298 298 298 298 298 298 297 297 297 297 297 297 297 297 297 297 296 296 296 296 296 295 294 294
305 304 304 304 303 303 303 303 303 303 303 303 302 302 302 301 301 301 301 301 300 300 300 300 300 300 301 301 300 300 300 299 298 298 298 297 297 297 296 296 296 295 296 296 296 295 295 296 297 298 298 297 296 297 298 299 299 299 299 299 299 298 298 298 298 298 298 298 298 297 297 297 297 297 296 296 296 296 296 296 296 296 296 295 295 294 294
304 304 304 304 304 303 303 303 303 302 302 302 301 301 301 301 301 300 300 301 301 301 301 301 301 301 301 301 300 300 299 299 299 298 298 297 297 297 296 296 296 296 296 296 296 296 296 296 297 298 298 297 296 297 298 299 299 299 299 298 298 298 298 298 298 298 298 298 298 297 297 297 297 296 296 296 296 296 296 296 296 296 295 295 295 294 294
304 304 304 304 303 303 303 302 302 302 302 301 301 300 300 300 300 300 300 300 300 301 301 301 301 301 301 301 301 301 300 300 299 298 297 297 297 296 296 297 296 297 297 297 297 297 297 296 297 298 298 297 297 297 298 299 299 299 299 299 298 298 298 297 297 298 298 298 297 297 297 297 296 296 296 296 295 296 296 295 295 295 295 295 294 294 294
304 304 304 303 303 302 302 302 302 301 301 301 300 300 300 300 300 300 300 300 301 301 301 301 301 301 301 301 301 301 300 300 299 298 297 297 297 297 297 297 297 298 298 297 297 297 297 297 297 297 297 297 297 298 298 299 299 298 298 299 298 298 297 296 297 298 298 298 297 297 297 297 296 296 296 296 295 295 295 295 295 295 295 294 294 294 293
304 303 303 302 302 302 302 301 301 301 301 300 300 300 300 300 301 301 301 301 301 301 301 301 301 301 301 301 301 301 300 300 299 298 297 297 297 297 297 297 297 298 298 297 297 296 297 297 297 296 296 296 297 297 298 298 299 299 298 298 298 298 297 297 297 298 298 298 298 297 297 297 296 296 296 296 295 295 295 295 295 294 295 294 294 293 293
303 302 302 302 301 301 301 301 301 300 300 300 301 301 301 301 301 301 301 301 301 301 301 301 301 302 302 301 300 300 300 299 299 298 297 296 297 297 297 297 297 297 297 297 297 296 296 297 297 295 294 295 296 296 295 296 297 299 299 298 298 298 298 297 297 298 298 298 297 297 297 297 296 296 296 296 296 295 295 295 295 295 295 294 294 294 293
302 302 302 302 301 301 301 300 300 301 301 301 301 301 301 301 301 301 301 302 302 302 302 302 302 302 302 301 300 300 299 298 298 297 296 296 297 298 298 298 298 297 297 297 296 296 296 297 296 295 294 294 295 294 293 294 295 297 298 298 298 298 298 298 298 297 298 298 297 297 297 297 296 296 296 296 296 295 295 295 295 295 294 294 294 294 293
302 302 301 301 301 301 301 300 300 301 301 301 301 301 301 301 301 302 302 302 302 301 301 301 301 301 301 300 299 299 298 298 298 297 297 297 298 298 298 298 298 298 297 296 296 296 297 297 296 294 294 294 294 293 292 292 294 295 295 296 298 298 298 298 297 297 297 297 297 297 297 297 296 296 296 296 296 295 295 295 294 294 294 294 294 294 293
301 301 301 301 300 301 301 301 301 301 301 302 302 301 301 302 302 301 301 301 301 301 301 301 300 300 300 299 299 299 298 298 298 298 298 298 298 298 298 298 298 299 298 298 297 297 297 296 295 294 294 294 295 293 290 291 293 293 292 293 295 297 297 297 297 297 297 297 297 297 297 296 296 296 296 296 296 295 295 295 294 294 294 294 294 293 293
301 301 301 300 300 300 301 301 301 301 301 301 301 301 301 302 302 301 300 300 301 300 300 300 300 299 299 299 299 299 299 298 298 298 298 298 298 298 298 298 299 299 299 299 298 297 297 296 296 294 293 294 295 294 291 291 293 293 292 292 294 295 296 297 297 297 296 296 296 296 296 296 296 296 295 295 295 295 295 295 295 294 295 294 294 293 293
301 301 301 301 301 301 301 301 301 301 301 301 301 301 301 301 301 301 300 300 300 300 300 300 299 299 299 299 299 299 299 299 298 298 299 299 299 298 298 299 299 299 299 299 298 297 297 297 296 295 295 295 296 295 293 293 293 294 294 294 293 293 294 295 296 296 296 296 296 296 296 296 296 296 296 295 295 295 295 295 295 294 294 294 294 294 293
301 301 301 302 302 302 302 301 301 301 301 301 301 301 301 301 301 301 301 300 300 300 300 300 300 300 299 299 299 299 299 299 299 299 299 299 299 299 299 299 299 299 299 299 299 298 297 297 296 295 296 296 296 295 294 294 294 294 295 295 294 293 293 293 295 296 296 296 295 295 296 296 296 296 296 295 295 295 295 295 295 295 294 294 294 294 294
301 301 301 301 301 301 302 302 301 301 301 301 301 301 301 301 301 301 300 300 300 299 299 300 301 300 299 299 299 299 299 299 299 299 299 299 299 299 299 299 299 299 299 299 299 298 297 297 296 296 296 296 295 295 294 294 293 294 295 295 295 294 293 292 293 295 296 295 295 295 295 296 296 296 295 295 295 295 295 295 295 295 294 294 294 294 294
301 301 301 301 301 301 301 301 301 300 300 301 301 300 300 300 300 300 300 300 300 299 299 300 300 300 300 300 300 300 300 300 299 299 299 299 299 299 299 299 300 300 299 298 298 298 297 297 296 296 295 295 295 295 295 294 294 294 295 295 295 294 293 292 293 294 295 295 295 295 295 296 296 295 295 295 295 295 295 295 295 295 295 294 295 294 294
301 301 301 301 301 301 301 301 300 300 300 300 301 301 300 300 300 300 300 300 299 299 299 300 300 300 300 300 300 301 301 300 300 299 299 299 299 299 299 299 300 300 299 298 298 298 297 297 296 296 295 295 295 295 294 294 294 295 295 294 294 293 292 292 292 294 294 294 294 295 295 295 295 295 295 295 295 295 295 295 295 295 295 295 295 294 294
301 301 301 301 301 301 301 301 301 300 299 299 300 300 300 300 300 300 300 300 300 299 300 300 300 300 300 301 301 301 301 300 300 300 299 299 300 300 299 299 300 299 298 298 298 297 297 297 296 295 295 295 295 295 294 294 295 295 294 294 293 292 292 292 293 294 294 294 294 294 294 295 295 295 295 295 295 295 295 295 295 295 295 295 294 294 294
301 301 301 301 301 301 301 301 301 301 300 299 299 299 300 300 300 300 300 300 300 300 300 300 300 299 300 300 300 300 300 300 300 300 300 300 300 300 300 300 300 299 298 297 297 297 297 297 296 295 295 295 295 295 294 295 295 294 294 294 293 293 293 293 294 294 294 294 294 294 294 294 294 294 295 295 295 295 295 295 295 295 295 294 294 294 294
301 301 301 301 301 301 301 301 301 301 301 300 299 299 299 300 300 300 300 300 300 300 300 300 299 299 300 300 300 300 300 300 300 300 300 300 300 300 299 299 299 299 298 297 297 298 298 297 296 295 296 295 295 295 294 294 294 294 294 294 294 294 294 294 294 294 294 294 294 293 293 294 294 294 294 295 295 295 295 295 295 295 295 295 294 294 294
301 300 301 301 301 300 301 301 301 301 301 300 300 299 299 300 300 300 300 300 300 300 300 300 300 300 300 300 300 300 300 300 300 300 300 300 300 300 300 299 299 298 298 297 297 298 298 297 296 295 296 295 295 294 294 294 294 294 294 294 294 294 294 294 294 294 294 294 293 293 293 293 294 294 294 294 294 295 295 295 294 294 295 295 295 294 294
301 300 300 301 300 300 301 301 301 301 301 300 300 299 299 300 300 300 300 300 300 300 300 300 300 300 300 300 300 300 300 300 300 300 300 300 300 300 300 299 298 298 298 297 297 298 298 297 296 295 296 295 295 294 294 294 294 294 294 294 294 294 294 294 294 294 294 294 293 293 293 293 293 294 294 294 294 294 294 294 294 294 294 295 295 294 294
301 301 301 301 301 301 301 301 301 301 301 301 300 300 300 300 300 300 300 300 300 300 300 300 300 300 300 300 300 300 300 300 300 300 300 299 299 298 298 298 297 297 297 297 297 298 297 297 296 295 296 295 295 295 295 295 295 294 294 295 294 294 294 294 294 294 294 294 293 293 293 293 293 293 293 293 293 294 294 294 294 294 294 294 294 294 294
301 301 301 301 301 301 301 300 300 300 300 300 300 300 300 300 300 300 300 300 300 300 300 300 300 300 300 300 300 300 300 300 300 300 300 299 299 298 298 297 297 297 297 297 297 297 297 296 295 296 296 295 295 295 295 295 295 294 294 294 294 294 294 294 294 294 294 294 294 293 293 293 293 293 293 293 293 293 293 293 293 294 294 294 294 294 294
301 301 301 301 301 301 300 300 300 300 300 300 300 300 300 300 300 300 300 300 299 300 300 300 300 300 300 299 299 299 299 299 299 299 299 298 298 298 298 297 296 296 297 297 297 297 297 296 296 296 295 295 295 295 295 295 295 295 294 294 294 294 294 294 294 294 294 294 294 293 293 293 293 293 293 293 293 293 293 293 293 292 292 292 293 294 294
301 301 301 301 300 300 300 300 300 300 300 300 300 300 300 300 300 299 299 299 299 299 299 299 300 300 300 299 299 299 299 299 298 298 297 296 296 296 297 297 297 297 297 297 297 297 297 296 296 296 295 295 295 295 296 295 295 295 295 295 294 294 294 294 294 294 294 293 293 294 293 293 293 293 293 293 293 292 292 292 292 291 290 291 292 293 293
301 301 301 300 300 300 300 300 300 300 300 300 300 300 300 300 299 299 299 299 299 299 299 299 299 299 299 299 299 299 299 299 298 297 297 296 296 296 296 296 297 296 296 296 296 296 296 296 296 295 295 295 295 295 295 295 295 294 294 294 294 294 294 294 294 294 293 293 293 293 293 293 293 293 293 293 293 292 292 292 292 291 291 292 292 293 292
301 301 301 300 300 301 301 300 300 300 300 300 300 300 299 299 299 299 299 299 299 299 299 299 299 299 299 299 299 299 299 298 298 297 297 296 296 296 296 296 296 296 296 296 296 296 296 296 295 295 295 295 295 295 295 295 294 294 294 294 293 293 293 293 293 293 293 293 293 293 293 293 293 292 292 292 292 292 292 292 292 292 291 292 292 292 292
Wind_Speed
10 9 10 11 12 12 12 11 9 8 5 3 4 4 3 1 4 6 12 16 16 14 14 13 13 12 12 13 13 12 12 13 13 13 14 15 15 15 15 16 17 17 18 18 18 19 19 19 20 21 21 22 24 24 25 24 21 17 16 16 16 17 18 18 18 18 18 17 15 13 12 11 10 9 7 7 6 6 8 8 7 8 8 8 10 10 10
12 10 11 12 13 14 15 14 12 11 11 10 10 9 9 9 10 13 18 18 14 12 12 13 15 16 16 16 14 13 13 13 13 13 14 14 14 14 14 15 15 16 16 17 17 18 18 19 20 20 20 20 22 24 25 25 23 19 17 17 17 18 19 19 18 18 18 18 17 15 13 11 10 10 8 6 6 4 4 7 9 10 11 10 8 8 9
10 10 10 11 14 16 17 15 12 11 12 12 12 12 12 13 15 16 19 18 12 10 14 18 18 17 18 16 14 14 13 13 13 13 13 13 13 13 13 13 14 15 15 16 16 17 18 19 19 20 20 19 21 23 24 25 25 21 18 18 18 18 19 18 18 18 18 18 18 17 16 14 11 10 9 7 7 5 3 5 8 11 12 11 10 9 9
7 7 10 12 15 17 16 14 12 10 9 8 8 7 6 8 15 18 16 12 8 9 16 19 17 18 18 15 14 14 13 13 13 13 13 13 12 12 12 13 13 13 14 15 16 17 17 18 18 19 19 18 19 21 23 24 24 22 20 19 18 19 19 18 18 19 19 18 19 19 18 17 15 12 10 8 7 7 5 4 7 9 11 12 13 13 10
6 8 10 9 9 10 9 8 8 6 7 9 8 8 8 10 14 12 8 8 10 13 17 16 15 17 16 15 14 13 13 14 13 13 13 13 12 12 11 12 12 12 13 14 15 16 16 16 17 18 18 18 18 19 20 22 23 23 21 19 19 19 19 19 19 19 19 19 19 20 20 20 19 17 14 10 8 6 5 5 5 7 9 12 14 15 14
7 10 7 3 6 6 3 3 4 3 5 9 11 12 11 10 9 8 9 13 14 14 14 15 15 16 16 16 15 13 13 13 13 13 12 12 12 11 11 11 11 11 12 13 14 15 15 16 15 16 16 17 17 17 19 20 22 22 22 20 20 19 19 19 19 19 19 20 20 20 21 21 23 23 19 16 13 10 7 6 6 6 8 10 11 13 15
7 9 7 6 5 3 2 2 2 5 9 13 16 14 11 9 11 15 17 16 15 15 16 17 19 19 18 17 15 12 12 12 12 12 11 11 10 10 10 10 10 11 12 13 14 15 15 16 15 15 16 15 16 17 18 19 21 22 22 21 21 20 20 19 19 19 20 20 20 20 21 21 24 26 25 23 19 16 13 10 8 6 7 8 9 11 13
7 7 5 4 4 4 3 4 6 9 11 13 13 12 9 8 11 16 17 16 17 20 21 20 21 21 19 17 13 11 11 11 11 11 10 10 9 9 9 9 9 10 11 13 14 14 15 15 15 15 15 15 15 16 17 18 20 22 22 22 22 21 21 21 21 20 20 20 20 20 21 22 24 27 28 28 26 24 21 18 14 11 8 8 8 10 11
4 5 4 4 5 4 2 3 5 6 5 4 6 7 6 5 8 14 17 17 19 21 21 21 22 21 19 15 11 9 11 13 12 10 9 9 8 9 8 8 9 10 11 12 13 13 15 16 16 16 16 15 15 16 17 18 19 21 22 23 23 22 21 21 21 21 21 21 20 20 21 21 23 25 27 28 29 28 27 26 23 19 15 12 10 9 9
4 6 6 5 6 4 3 6 7 5 1 0 5 8 5 4 9 14 17 18 20 22 21 22 21 18 13 9 7 9 11 12 11 9 9 8 8 8 8 8 8 9 10 11 12 13 15 16 17 16 16 16 15 16 17 18 19 21 22 23 23 23 22 21 21 21 21 21 20 21 21 21 21 22 23 23 25 25 26 26 26 25 23 20 17 14 12
6 6 6 6 4 2 4 9 9 6 4 4 5 5 4 6 12 16 18 20 21 21 21 22 19 12 6 6 9 12 12 10 10 9 9 8 7 7 7 7 8 8 9 10 11 13 15 17 17 16 16 16 16 17 17 18 19 21 22 22 22 22 22 22 22 22 21 21 21 21 21 20 19 20 20 20 20 21 21 21 22 24 24 22 21 19 17
6 5 4 4 2 2 6 11 10 7 4 4 6 4 5 12 17 18 19 20 21 21 22 20 13 4 3 9 14 15 14 11 10 9 8 7 7 7 7 8 8 8 8 9 10 12 14 15 16 16 16 16 17 18 18 18 19 20 20 21 20 20 21 22 23 23 22 20 21 22 21 20 19 18 18 18 18 18 18 18 18 21 22 23 23 21 20
6 5 4 4 3 3 8 11 10 8 5 5 5 2 9 19 21 19 19 20 21 22 20 14 6 4 9 17 19 17 14 11 10 9 8 7 7 8 8 9 9 8 8 9 10 10 12 13 14 15 16 16 17 18 18 19 19 19 19 19 19 20 21 21 23 24 23 20 19 20 21 21 20 19 18 18 17 16 16 16 17 18 19 21 23 23 23
4 3 5 5 4 5 8 9 8 7 4 2 2 7 16 24 24 20 20 21 21 19 14 10 11 14 18 21 20 16 13 12 11 10 9 9 9 8 8 8 8 7 8 8 9 9 10 12 13 14 15 16 16 17 18 18 18 18 17 17 18 19 20 20 21 23 23 21 19 19 20 21 21 21 21 20 19 17 16 16 16 16 17 17 19 21 22
2 4 5 4 3 6 12 11 7 4 1 3 11 16 20 23 22 22 22 21 19 17 13 15 19 21 20 19 17 16 15 14 13 12 10 9 9 8 8 8 7 7 7 8 8 8 8 10 11 12 14 15 15 16 16 16 16 16 16 17 17 18 19 19 20 21 22 22 20 19 20 20 21 22 22 21 20 19 19 18 17 17 16 16 17 19 20
2 4 3 1 3 9 12 8 4 4 5 9 15 19 20 21 22 23 23 20 18 18 19 21 22 21 19 19 18 18 17 15 13 11 10 9 9 9 8 8 8 7 7 8 8 8 8 9 10 11 12 14 14 15 15 15 15 16 16 17 18 19 19 19 19 18 19 20 21 20 20 21 21 23 23 22 20 20 20 20 19 18 18 17 17 17 18
3 4 5 4 7 11 10 5 6 10 11 11 14 18 21 21 21 22 22 21 20 21 23 23 21 20 21 20 19 18 16 13 12 11 10 9 9 9 8 9 9 9 9 9 9 9 9 9 9 10 11 12 13 14 14 14 15 16 16 17 18 19 19 19 18 18 17 18 19 20 20 20 21 23 24 23 22 21 20 20 20 19 18 18 18 17 17
7 9 9 8 10 12 11 10 11 13 13 13 14 18 20 20 20 21 22 23 24 24 23 22 21 22 22 20 18 16 15 13 11 11 10 9 9 8 8 9 10 10 10 10 10 10 10 10 10 10 10 10 11 11 12 14 15 15 16 17 17 18 18 18 18 18 17 17 18 19 19 20 21 22 23 24 25 24 23 21 20 19 19 18 18 18 17
5 5 7 8 10 13 14 13 13 13 12 13 15 17 18 19 20 21 23 26 26 23 21 22 23 23 21 19 18 16 14 13 11 10 10 9 8 8 8 9 10 10 10 11 11 11 11 11 11 10 10 10 10 10 10 12 14 15 16 16 17 17 17 18 18 18 18 17 17 17 18 19 20 21 21 22 24 27 28 25 23 21 19 19 18 18 18
4 6 9 11 12 13 13 12 13 13 13 14 15 16 18 19 20 22 24 26 25 23 22 24 24 23 20 18 17 15 13 12 11 10 9 8 8 8 9 9 10 10 10 11 11 11 11 11 11 11 11 11 10 10 10 11 13 15 16 16 16 16 16 17 18 18 18 17 16 15 16 17 19 22 23 21 22 26 28 28 25 22 20 19 18 17 17
7 8 11 13 13 11 10 11 12 13 14 17 18 18 20 21 22 24 24 24 24 24 25 24 23 22 20 17 15 15 13 11 10 9 9 8 8 8 9 9 9 10 10 11 11 11 11 11 12 12 12 11 10 10 9 10 13 15 15 15 15 15 15 17 17 17 18 17 16 15 15 15 16 20 22 21 21 23 25 26 26 24 22 21 20 17 15
6 7 12 13 9 8 9 12 13 14 16 19 20 21 22 23 24 25 25 24 24 24 23 22 21 20 18 16 14 14 12 11 10 9 9 9 9 8 8 8 8 9 10 10 10 11 12 12 13 13 13 11 10 10 9 10 12 14 15 14 14 14 15 16 17 17 17 17 16 16 15 15 16 17 19 20 20 21 22 23 24 24 23 22 22 18 14
7 13 17 14 9 12 15 15 16 17 18 20 22 23 24 25 26 27 28 28 27 24 21 20 19 18 17 15 13 13 12 11 10 9 9 9 9 8 8 7 7 8 8 9 10 11 12 13 14 14 13 12 11 10 10 10 11 13 14 14 14 14 14 15 16 17 17 17 17 16 16 16 15 15 16 18 19 20 20 20 21 21 21 21 20 19 15
12 19 17 13 14 19 20 18 18 19 20 22 24 25 25 26 27 28 29 28 27 24 21 19 17 16 16 13 12 12 11 10 9 9 9 9 9 9 8 7 6 6 7 8 10 11 13 14 14 13 13 13 12 10 10 9 10 12 13 13 14 14 13 14 15 15 16 17 17 17 17 16 16 16 15 16 18 19 20 20 20 19 19 20 18 17 16
18 20 16 16 21 23 22 20 21 21 21 24 25 25 27 28 28 27 27 26 24 22 21 18 16 15 13 12 11 10 10 9 9 9 9 9 9 8 7 6 6 5 5 7 9 11 12 13 13 12 13 13 12 10 10 9 10 11 12 12 13 13 13 13 13 13 15 15 16 16 17 17 17 17 16 16 17 17 18 19 20 19 19 21 19 16 14
21 21 21 23 24 24 23 22 22 22 23 25 26 26 27 27 26 25 24 23 21 20 19 17 15 13 12 11 10 9 8 8 8 8 7 7 7 7 7 7 6 5 5 6 8 11 13 13 12 12 12 13 12 11 9 9 9 10 11 11 11 13 13 13 12 12 13 14 14 15 16 17 17 17 17 17 17 16 16 17 18 18 18 20 20 18 16
23 24 26 27 24 22 22 23 24 24 24 25 26 27 27 25 24 23 22 20 19 18 16 16 14 12 11 9 8 8 8 8 7 7 6 6 6 7 7 7 7 6 6 6 7 11 13 11 10 11 12 12 11 10 9 8 8 9 10 10 10 12 13 13 11 11 11 12 12 13 15 16 17 17 17 17 17 16 15 16 16 15 16 17 19 20 19
23 23 23 24 25 26 25 24 25 26 25 25 27 27 25 23 22 21 20 19 18 16 15 14 13 11 10 9 8 8 8 7 7 6 6 6 6 6 7 8 7 6 6 5 6 9 11 10 9 10 11 11 10 9 8 8 8 8 9 10 10 10 11 12 11 10 11 10 10 11 13 15 16 17 17 18 18 17 16 15 15 15 14 14 16 18 20
24 22 21 22 26 28 28 27 27 26 25 25 25 24 23 23 22 20 19 18 17 15 14 13 11 10 9 8 7 7 7 7 7 6 6 5 5 5 7 6 5 5 4 4 6 7 9 9 9 9 9 10 9 9 8 8 9 9 9 9 10 10 11 11 10 10 10 10 9 10 12 14 15 16 17 18 18 17 16 15 14 14 14 14 15 17 18
23 23 24 25 27 28 28 28 27 25 25 24 24 23 23 22 20 19 18 17 15 14 13 12 11 9 8 7 7 7 7 7 7 6 6 5 4 5 5 4 3 3 3 3 5 6 7 8 8 8 8 8 8 8 8 8 8 9 9 9 10 11 13 13 11 9 9 9 9 10 11 13 14 15 16 17 18 18 17 15 15 14 14 14 15 17 18
25 26 27 27 27 27 27 25 25 24 24 24 23 22 21 20 19 18 17 16 14 13 12 11 10 9 8 8 7 7 7 7 7 7 6 5 4 4 4 3 2 2 2 2 3 5 6 6 7 7 8 7 7 8 8 8 8 8 9 10 10 11 14 15 12 9 7 7 8 9 10 12 14 14 15 15 17 17 17 16 14 13 14 14 15 15 18
29 28 28 27 26 25 24 24 24 24 23 23 22 21 20 19 17 16 16 14 13 12 11 10 10 9 8 8 8 8 7 7 7 7 6 5 4 4 3 3 2 2 2 1 2 3 5 5 5 7 7 7 7 8 8 8 8 8 8 9 9 10 13 14 13 9 7 7 8 8 9 10 12 14 14 14 15 16 17 16 14 13 13 14 14 14 18
31 29 28 27 26 26 25 24 24 23 23 22 21 19 18 17 16 14 13 12 11 10 10 10 9 10 10 10 9 8 7 7 7 7 6 5 4 3 3 3 2 2 1 1 1 2 3 3 5 7 7 7 7 8 8 9 8 8 8 8 8 9 11 12 12 11 9 7 8 9 9 11 12 14 14 13 13 14 15 15 14 12 12 13 14 14 17
26 26 27 27 27 27 27 25 24 23 21 20 18 17 17 16 14 12 11 10 9 9 9 9 9 11 12 11 10 9 8 7 7 6 6 5 3 2 2 2 2 2 2 1 0 0 2 3 5 6 7 7 8 9 10 9 9 8 8 8 8 8 9 9 10 10 9 8 9 10 11 11 12 13 13 12 11 12 13 14 14 12 11 13 14 13 14
23 24 25 25 25 25 24 23 22 21 20 18 17 17 15 14 12 11 11 10 9 9 9 9 10 11 12 11 10 9 8 8 8 7 6 5 4 3 2 2 1 1 2 1 1 1 1 3 4 6 6 6 7 9 10 10 9 9 10 9 8 8 8 8 9 9 9 10 10 11 11 11 12 13 13 12 11 12 13 13 13 11 10 11 12 11 12
24 25 24 23 23 23 22 20 20 19 18 18 17 15 14 13 12 12 12 11 9 9 10 10 10 10 10 9 9 9 8 8 8 8 6 5 4 3 2 1 1 2 2 1 2 2 2 3 4 5 6 6 6 7 9 10 9 10 10 10 9 8 8 8 8 8 9 10 10 11 12 12 12 12 12 12 12 12 12 12 12 12 10 10 10 11 11
25 25 23 22 22 21 20 19 19 18 17 16 15 15 14 14 13 12 12 11 10 10 10 10 10 10 9 9 9 9 8 7 8 7 6 4 3 2 2 2 2 2 2 2 3 3 2 3 4 5 6 4 4 6 8 9 10 9 9 9 9 8 8 8 8 8 8 9 10 11 11 11 11 11 11 11 12 12 11 11 11 11 10 9 9 9 10
24 23 21 20 20 19 18 17 17 16 15 15 14 14 14 14 13 13 12 11 10 10 10 9 9 9 9 9 9 9 8 7 7 6 5 4 3 2 2 3 3 3 2 3 3 4 4 5 5 5 4 2 3 5 7 9 10 9 8 8 9 9 8 8 8 8 8 9 10 10 10 10 10 10 11 11 11 12 12 11 11 10 10 10 9 8 8
22 21 20 19 19 17 16 15 15 15 15 14 14 15 15 15 14 13 12 11 11 11 10 8 8 9 9 9 9 8 8 8 8 7 6 5 4 4 4 5 4 4 4 5 4 5 6 6 4 3 2 2 3 4 6 9 11 11 9 9 9 9 8 8 8 7 8 8 9 10 10 10 10 10 11 11 11 11 12 13 11 10 11 11 9 7 7
22 20 20 19 18 17 16 15 15 15 15 15 14 16 17 17 15 14 13 12 11 11 10 8 8 9 9 9 9 8 8 8 8 8 7 6 5 5 6 5 5 5 6 6 4 6 8 6 3 1 2 2 2 4 6 9 11 11 9 8 9 9 8 7 7 7 7 8 9 10 10 10 10 10 10 11 11 11 12 12 11 10 11 11 9 7 6
22 21 20 19 18 17 16 16 16 17 18 17 15 15 16 17 16 15 13 12 12 12 10 8 8 8 8 9 9 8 7 7 7 7 6 6 6 5 5 5 4 6 7 6 5 7 9 7 3 2 2 2 2 4 6 8 9 9 8 8 9 8 7 7 7 7 8 8 9 10 10 10 10 10 10 10 10 11 11 11 10 10 10 10 10 9 7
22 21 20 19 18 17 16 16 16 18 20 19 18 17 16 16 16 15 13 12 12 12 10 9 9 9 9 8 8 8 7 7 7 7 7 7 6 6 5 5 5 6 7 6 5 7 8 7 5 4 3 2 3 5 7 7 7 6 7 8 9 8 7 7 7 7 8 8 9 10 10 10 10 10 11 11 10 10 10 10 10 10 10 10 9 10 9
22 21 21 20 18 17 17 16 16 17 19 19 19 18 17 16 16 15 14 12 12 11 10 9 9 10 9 9 8 8 8 7 7 7 8 8 8 8 6 5 5 7 8 6 6 7 7 7 6 5 3 3 4 6 6 5 5 5 6 7 8 8 7 7 7 7 8 9 10 10 10 11 11 11 11 11 10 10 10 10 10 10 10 9 9 9 10
23 23 22 20 19 19 18 16 16 17 17 18 18 18 17 17 17 16 14 13 12 10 9 9 8 8 9 9 8 8 8 8 7 8 7 7 8 9 9 8 8 9 9 7 6 7 7 7 8 6 4 4 5 5 5 4 4 4 5 6 6 7 7 7 7 8 8 9 10 10 10 10 10 10 10 10 10 10 10 10 10 10 10 9 9 9 9
25 25 24 21 20 20 18 17 16 17 16 16 18 18 18 18 18 16 14 12 11 11 10 10 9 8 8 8 8 8 8 7 7 7 7 6 6 7 8 9 9 9 9 8 7 7 8 9 10 7 4 4 5 5 4 4 4 5 5 5 6 6 7 7 7 7 7 8 9 9 9 9 9 9 9 10 10 10 10 10 10 10 10 9 8 8 8
26 26 25 23 22 20 17 17 17 16 15 15 17 18 18 18 18 16 14 12 11 11 11 10 9 8 8 7 7 7 8 8 8 7 7 6 7 8 9 10 10 9 9 8 7 8 9 11 10 7 5 4 4 4 4 5 5 5 5 6 6 7 7 7 7 7 7 8 8 8 9 9 9 9 9 10 10 10 10 11 11 10 9 9 8 7 7
27 26 25 23 20 18 17 18 17 16 15 15 16 17 18 19 18 16 14 13 12 11 11 11 10 9 8 7 7 7 7 7 8 8 7 7 8 9 10 11 10 9 8 8 7 9 10 11 9 8 6 4 3 3 4 5 6 6 7 7 7 8 8 8 8 8 8 9 9 9 9 9 9 9 9 10 10 9 10 10 10 10 9 9 9 8 7
27 26 24 20 18 19 20 20 17 16 16 15 15 15 17 18 17 16 14 13 13 12 11 11 10 10 9 8 8 7 7 7 7 7 7 6 6 7 8 9 9 8 8 8 8 10 10 10 9 8 7 6 4 5 6 6 7 7 8 8 8 9 9 9 9 9 9 10 10 9 10 9 9 8 9 9 9 9 10 10 10 9 9 9 9 9 8
25 24 22 20 20 21 21 19 17 16 16 15 14 14 15 16 16 15 15 14 13 12 12 12 11 11 10 9 9 8 8 7 7 7 7 7 7 6 7 7 8 7 6 6 7 9 10 10 10 9 9 7 6 7 8 8 9 9 9 10 10 10 11 11 11 11 10 10 10 11 11 10 9 9 9 9 9 9 10 10 10 10 11 11 10 10 10
24 23 22 22 23 22 20 18 17 16 16 15 15 15 15 16 16 15 14 14 13 13 13 13 12 12 11 10 9 9 8 8 7 7 7 7 7 7 6 6 6 6 6 6 6 7 9 9 9 10 9 9 8 8 8 8 9 10 10 11 11 12 12 13 14 14 13 12 11 11 11 11 11 10 9 9 9 9 10 11 12 12 12 11 11 11 11
25 23 23 22 22 20 19 18 17 16 16 16 16 15 16 16 15 14 14 14 13 13 13 13 13 12 12 11 10 9 8 8 7 7 6 6 6 6 6 7 7 7 6 6 6 5 6 7 8 9 9 8 7 8 9 10 11 11 12 13 14 13 13 13 14 13 12 12 12 12 12 13 12 11 10 10 10 10 11 12 12 12 11 9 9 10 11
24 22 22 21 20 18 18 17 17 16 16 16 16 16 16 16 15 14 14 14 14 13 13 13 13 12 12 11 10 9 9 9 8 7 6 6 6 6 6 6 6 6 5 5 5 5 5 6 7 8 8 7 7 8 10 12 13 13 12 13 14 14 14 14 14 13 13 12 12 12 13 13 13 12 11 11 10 10 11 11 11 11 10 10 9 10 10
Wind_Direction
83 79 85 92 94 92 86 80 77 71 70 98 100 64 43 149 187 149 134 139 141 143 147 140 129 124 116 113 113 111 108 104 100 94 86 79 71 65 61 54 49 45 40 38 35 32 30 28 26 28 27 24 25 24 24 24 18 9 6 6 6 7 7 7 6 6 7 6 3 356 343 327 320 327 329 312 311 317 309 298 262 249 265 269 258 250 246
87 83 89 94 96 92 78 67 65 68 70 77 83 77 72 79 92 115 130 131 125 128 131 120 116 116 113 112 112 108 107 103 99 94 87 80 72 66 63 57 51 47 42 39 35 32 30 27 25 26 25 23 23 24 25 26 23 16 11 11 11 10 10 9 7 7 8 7 4 3 359 346 327 325 330 321 320 330 313 300 284 270 273 279 275 269 262
89 89 94 97 94 90 80 67 60 66 73 73 77 81 78 83 98 114 122 119 111 113 115 113 115 115 112 113 110 106 106 105 102 97 90 84 76 68 63 59 53 47 42 38 34 32 29 27 25 25 24 22 21 23 25 25 24 19 15 15 15 14 12 11 9 8 9 8 7 7 9 7 352 334 328 318 312 321 316 285 274 270 272 275 281 282 268
98 113 115 110 104 95 83 64 47 51 69 71 73 73 66 100 122 125 124 123 125 127 123 119 118 117 113 111 109 108 108 107 104 99 93 87 80 73 65 59 52 45 39 35 33 32 29 27 25 23 23 22 20 21 22 24 24 21 19 19 17 17 15 12 11 11 10 10 11 11 13 17 14 2 349 334 314 307 307 280 263 264 265 262 267 272 265
118 147 138 125 132 126 93 48 19 28 74 86 84 82 87 112 129 135 138 137 137 136 131 125 122 120 116 112 113 114 112 108 103 99 96 90 83 77 68 60 53 44 39 35 33 31 28 26 24 22 22 22 19 18 19 22 24 23 22 22 19 18 17 14 14 13 12 13 15 15 17 20 23 21 12 2 348 327 315 305 281 266 257 253 256 263 265
143 159 152 163 185 166 106 17 341 7 86 97 95 93 94 96 92 90 106 123 132 135 132 127 123 119 115 113 113 112 112 111 106 100 98 94 88 79 67 61 55 46 41 37 33 30 27 24 22 20 22 21 19 18 18 20 23 24 24 24 21 20 18 17 16 15 14 16 17 18 19 23 27 29 27 22 16 8 354 335 312 284 266 259 257 258 262
140 157 173 192 186 153 65 47 71 83 99 102 92 82 79 85 93 102 112 123 129 126 121 120 117 114 112 109 106 104 106 110 109 104 99 94 89 79 67 61 54 47 43 37 33 30 26 24 22 20 21 20 18 18 20 21 23 24 24 25 24 21 19 18 17 17 17 16 17 18 19 21 26 30 31 30 28 25 20 10 353 326 298 284 275 265 261
136 158 183 180 139 103 94 110 110 111 120 118 99 73 59 79 111 120 121 122 121 120 118 117 115 113 108 101 96 99 109 115 113 106 100 95 87 79 70 59 54 52 47 40 36 32 27 25 24 22 21 20 19 20 22 24 25 25 26 27 26 22 20 20 18 18 18 17 17 17 18 19 24 27 29 29 30 30 28 25 20 9 346 321 303 285 273
144 130 99 101 127 136 138 151 151 141 131 121 108 91 70 83 118 127 126 124 122 121 121 120 119 116 108 98 96 106 119 122 116 104 100 95 84 80 74 60 59 60 52 43 39 35 31 28 26 25 22 21 23 24 25 27 28 28 28 29 28 24 22 20 19 19 20 19 17 17 17 18 21 23 25 25 26 27 27 25 24 20 14 4 346 321 300
151 125 108 131 160 180 186 176 172 166 189 270 122 115 101 109 134 138 135 130 128 128 128 129 130 125 112 106 121 132 130 125 117 108 103 95 84 80 72 60 61 59 51 45 40 38 35 32 29 28 25 25 28 28 29 31 30 30 30 29 28 26 24 22 21 20 19 18 17 17 17 17 17 19 20 21 21 23 23 24 23 21 19 15 8 359 350
162 165 165 164 158 156 160 160 159 158 168 179 159 140 134 147 149 146 139 134 134 137 138 141 146 144 128 129 146 149 144 133 123 116 107 98 89 79 69 64 61 55 50 48 43 39 37 32 30 29 28 31 34 32 32 33 32 32 31 28 26 26 25 24 23 21 19 18 18 18 17 17 16 17 18 18 19 20 20 22 22 22 22 21 17 12 8
163 179 169 136 91 77 144 151 153 150 150 184 203 201 167 160 158 152 143 139 141 143 145 149 158 163 134 145 151 151 145 136 128 122 113 103 92 78 71 69 64 57 53 49 43 40 36 32 30 31 32 35 37 36 35 36 34 32 29 27 25 25 25 25 25 24 23 21 21 21 20 18 17 16 16 15 15 18 19 20 21 22 24 25 24 23 20
150 159 144 110 79 118 143 143 144 145 156 199 225 184 136 150 156 152 146 144 144 147 149 153 148 86 113 136 144 144 141 135 129 122 113 102 89 78 73 72 68 61 54 50 47 42 38 34 32 33 34 37 38 37 38 37 35 30 27 26 25 25 25 25 25 27 26 24 23 23 23 22 21 20 18 15 13 14 15 16 17 17 20 22 24 25 26
142 149 138 120 108 140 150 141 141 159 182 198 129 106 128 143 149 149 146 145 146 148 147 137 121 114 120 130 136 139 138 132 125 119 110 101 92 81 73 69 67 61 54 50 49 45 40 37 35 35 37 38 38 37 37 35 31 27 25 25 24 23 23 22 24 27 28 27 26 25 24 24 23 23 22 20 18 17 14 13 14 14 15 17 19 21 22
144 151 146 138 125 153 160 155 152 179 231 108 117 122 131 140 144 145 145 145 147 147 136 125 125 125 126 130 132 133 132 127 123 117 108 100 93 83 73 67 62 59 57 53 50 48 44 38 36 37 37 38 37 36 33 30 26 24 23 23 22 21 21 21 21 24 28 30 31 29 28 28 26 25 23 21 21 21 19 19 18 16 16 15 15 16 18
223 158 141 96 94 135 153 158 130 101 102 119 129 131 134 141 144 145 144 145 150 146 134 130 131 129 129 130 130 129 128 123 118 111 102 97 91 82 73 66 60 59 61 59 56 54 47 40 37 36 35 36 35 33 30 25 22 22 22 21 22 22 22 21 22 23 26 30 33 33 32 32 31 29 27 25 24 22 21 22 21 20 20 18 16 17 18
46 71 88 105 106 115 123 111 92 104 113 124 133 135 137 141 146 146 143 144 149 144 135 133 133 131 131 131 129 128 124 118 114 108 101 95 88 80 72 66 63 63 66 67 64 57 49 41 37 33 31 31 30 28 26 23 21 22 22 21 22 22 22 22 24 24 25 28 31 34 34 33 32 32 30 29 28 25 22 22 21 21 20 20 21 22 23
94 73 81 104 109 106 108 108 111 115 119 124 132 136 137 141 145 146 144 145 147 142 135 134 134 133 132 130 127 126 123 118 114 107 99 92 84 80 76 70 68 68 69 69 64 57 50 42 36 32 27 25 24 22 22 22 22 22 22 22 22 22 22 24 24 25 26 28 29 31 33 33 32 31 30 31 31 30 28 24 22 20 19 20 21 22 23
145 89 89 104 108 111 115 115 114 116 120 127 133 135 137 139 141 141 143 145 145 139 135 135 134 133 133 131 128 126 122 117 112 104 98 92 84 80 79 75 73 70 68 66 62 54 49 42 36 31 27 23 21 18 19 21 22 22 23 23 23 22 23 24 23 23 24 27 27 27 30 34 34 33 31 30 31 33 33 29 25 21 19 18 19 20 20
112 100 112 112 104 108 116 117 119 123 125 130 133 133 135 137 137 137 141 145 143 137 135 136 134 133 134 132 128 126 121 116 111 104 98 94 87 85 85 82 78 73 68 65 60 52 46 39 32 28 25 22 20 19 20 22 22 23 23 24 24 24 24 24 23 22 21 24 26 25 27 31 34 35 35 33 31 32 32 31 28 24 20 19 19 19 20
99 103 126 124 107 103 112 117 121 126 128 130 132 132 133 133 133 134 138 141 140 137 136 136 135 134 133 130 127 124 119 114 108 102 98 94 90 90 91 86 80 74 67 61 53 45 39 32 26 21 19 18 19 20 22 24 24 24 24 23 24 26 27 25 25 24 22 23 24 23 24 24 22 26 31 32 31 30 30 29 27 24 22 21 22 22 22
137 144 154 150 130 119 128 127 125 128 130 131 132 132 133 133 133 135 136 137 137 136 135 136 136 133 130 128 126 121 115 109 105 100 96 93 87 88 92 88 79 71 62 53 45 37 31 25 19 16 15 16 19 21 23 26 27 24 23 24 25 26 26 25 25 25 24 24 24 22 23 21 15 14 19 22 24 26 27 26 24 22 20 20 21 21 21
151 152 157 158 136 125 132 132 129 130 132 131 131 133 134 134 135 137 137 136 136 135 134 136 135 131 130 128 124 118 112 105 102 97 93 90 85 84 88 86 78 68 57 46 37 31 25 19 15 16 17 17 19 24 26 30 31 26 24 27 27 26 25 25 25 26 25 24 24 22 21 20 18 14 11 10 12 16 19 19 19 17 15 15 17 20 21
137 144 152 151 132 128 132 132 130 132 132 131 130 131 133 133 135 138 138 136 136 136 136 136 134 132 130 126 121 118 112 105 102 98 92 87 83 79 78 76 74 66 51 40 32 26 20 16 16 19 20 18 21 29 32 35 36 31 28 30 30 27 25 24 24 26 25 24 24 24 22 19 18 15 10 6 5 6 6 8 10 9 5 5 9 17 21
139 139 140 135 129 128 130 129 130 132 132 131 129 130 132 134 135 136 136 135 136 136 136 135 135 134 131 125 120 117 112 108 107 100 90 85 82 78 73 71 70 63 46 36 29 22 17 15 18 22 20 18 26 37 38 39 40 33 29 31 31 28 27 26 22 22 23 23 23 23 21 19 16 15 12 8 5 2 359 0 2 1 358 358 2 8 16
135 134 131 126 124 127 131 131 133 135 135 133 132 132 134 135 135 135 135 136 136 137 136 135 135 133 130 127 123 119 118 117 112 104 99 94 87 80 74 69 64 59 49 36 24 21 20 19 21 23 19 20 31 41 41 41 40 32 29 30 25 20 23 26 22 17 17 19 20 20 19 18 16 14 11 7 5 2 360 359 358 356 355 355 356 359 3
134 136 132 127 127 134 137 135 136 138 137 135 134 134 135 135 134 135 135 135 136 137 136 137 138 136 134 134 133 133 137 137 126 118 116 109 97 87 78 70 63 57 52 39 23 22 23 22 23 24 22 24 33 40 40 39 36 29 26 26 21 14 15 18 18 12 9 11 15 16 15 15 15 12 9 7 5 2 1 360 357 356 358 357 355 356 357
135 138 137 134 136 139 138 135 136 136 135 134 134 135 135 136 136 137 138 138 139 140 139 141 142 141 140 142 145 147 151 151 144 135 126 116 106 93 81 72 64 55 52 42 27 23 24 23 26 27 26 28 33 37 37 35 30 23 19 18 15 9 5 5 5 2 0 3 9 12 14 15 14 13 10 8 7 5 3 1 359 358 2 2 358 358 357
136 138 136 133 135 137 136 136 136 136 135 135 136 138 140 140 140 141 142 143 144 145 147 150 151 148 149 152 156 157 155 155 152 145 135 127 115 95 81 73 59 48 51 45 30 25 25 26 27 27 26 29 33 34 34 31 24 17 11 8 5 358 351 348 346 346 351 354 356 5 14 13 9 10 12 11 9 7 6 5 4 2 2 2 0 360 358
137 138 136 135 136 137 136 137 139 139 139 141 142 143 145 145 145 146 147 150 152 153 156 160 161 160 161 161 161 159 155 154 155 152 145 141 127 99 83 66 42 40 52 40 26 25 26 26 26 25 25 27 27 26 28 28 20 10 4 1 357 348 345 345 342 336 340 345 345 353 5 5 3 8 12 12 11 11 8 7 6 3 2 2 1 2 1
137 137 136 137 138 138 137 139 141 142 144 145 146 148 150 150 150 150 153 157 159 159 162 167 171 170 169 166 164 161 157 154 156 157 156 155 143 114 90 68 47 48 45 23 14 21 26 26 22 21 23 26 23 19 19 18 14 6 3 3 359 350 350 356 359 351 341 342 342 346 355 358 1 6 8 7 8 9 7 5 3 3 2 2 2 3 2
134 134 136 138 141 142 142 144 145 145 148 150 151 152 155 155 154 155 159 163 166 167 171 178 180 178 175 171 166 163 162 162 165 167 169 165 149 125 102 78 54 33 16 350 349 18 30 28 17 16 22 26 21 15 13 13 10 4 1 4 2 354 354 3 11 8 354 345 345 348 351 354 357 360 1 2 3 6 7 6 4 2 3 2 1 1 1
141 143 146 148 149 148 147 148 149 149 151 154 155 156 157 158 158 160 163 168 175 180 186 191 190 186 181 175 169 169 172 171 172 175 178 173 154 131 111 86 56 27 11 316 316 16 28 23 10 13 20 21 16 12 13 13 10 2 358 359 358 353 354 0 7 9 3 356 352 350 348 348 350 353 357 0 1 4 7 8 4 1 4 5 3 359 357
149 149 151 152 152 150 150 151 153 154 155 157 159 160 160 160 161 163 167 174 181 185 186 186 184 183 182 178 177 178 175 171 175 181 179 172 161 144 125 93 65 39 16 4 317 345 9 8 6 11 14 13 9 7 8 11 9 1 357 356 352 349 351 353 356 359 359 355 350 347 345 346 349 351 354 357 0 2 4 5 2 1 4 7 6 358 352
149 147 147 149 150 150 151 153 155 158 161 161 162 164 166 167 168 169 169 170 170 171 169 168 171 178 181 182 183 180 170 168 178 181 172 165 162 157 147 122 68 346 334 337 228 221 311 355 4 8 9 6 0 359 4 9 7 359 358 359 352 343 341 344 346 346 345 343 343 343 342 344 348 351 352 353 354 356 0 3 4 0 358 3 6 1 355
150 149 148 150 152 154 155 157 159 161 163 164 165 168 171 172 171 168 165 163 162 162 162 162 168 176 181 180 177 174 167 167 175 174 163 155 156 155 157 183 248 286 304 287 239 238 292 336 351 5 14 11 356 356 6 13 9 359 357 359 353 341 337 338 338 337 339 340 342 340 339 341 346 350 352 351 350 351 357 3 4 359 353 355 2 6 4
154 154 153 154 157 159 160 162 162 163 165 166 168 172 173 173 172 168 164 163 163 162 162 164 171 177 178 172 172 174 173 172 177 179 174 167 164 162 180 221 249 278 294 278 259 254 264 291 326 1 19 11 345 350 8 17 14 4 354 349 347 344 340 336 332 333 335 337 339 338 338 340 344 347 349 349 349 350 352 354 354 354 351 351 358 5 8
158 160 161 161 164 165 165 167 169 171 172 173 175 177 178 177 175 173 169 167 167 166 167 169 173 178 180 178 180 185 188 186 187 192 198 202 210 219 228 243 261 273 279 277 269 251 245 268 312 358 17 346 326 350 7 11 12 9 356 343 342 344 341 336 332 332 332 333 336 338 337 338 341 344 347 349 350 350 347 344 344 349 350 349 353 4 10
164 166 167 169 171 173 175 180 184 187 188 187 186 186 186 183 179 177 176 174 173 174 175 177 179 182 186 188 192 199 206 209 209 211 215 226 242 247 247 255 259 255 262 275 267 242 242 261 295 345 346 312 333 353 354 358 7 11 0 344 339 339 336 334 333 331 329 330 334 335 336 336 339 341 344 346 348 348 346 344 344 348 347 345 349 0 8
175 176 177 179 182 183 185 190 194 195 194 191 188 189 190 188 184 182 182 182 182 183 184 189 193 193 194 196 199 204 210 217 222 226 231 239 245 247 252 256 252 251 263 272 253 231 241 256 268 270 281 303 341 344 337 350 6 11 360 343 338 338 336 334 333 331 329 330 331 332 334 335 336 337 339 341 343 346 347 346 346 347 347 346 348 352 353
181 183 184 185 187 187 188 190 192 193 192 190 189 190 192 190 187 187 188 189 190 191 192 196 202 203 202 204 206 205 206 211 217 222 225 225 226 235 247 248 243 252 267 272 248 234 241 246 235 223 250 283 322 331 337 351 4 6 357 348 347 346 343 339 337 334 332 331 331 331 333 332 331 332 335 336 338 342 345 345 345 346 347 347 348 346 342
184 185 187 189 189 189 190 191 192 193 194 195 196 198 196 192 190 191 193 193 194 196 199 205 210 209 206 203 204 206 209 210 210 213 217 219 223 234 243 242 244 257 269 272 255 240 238 235 227 223 230 260 298 319 336 350 358 358 355 356 358 358 353 348 343 339 335 333 332 330 330 329 329 329 329 331 333 336 339 340 342 343 346 348 347 344 342
189 189 191 192 192 193 194 196 197 197 197 198 201 203 201 195 191 192 195 196 196 198 203 210 215 214 208 203 204 209 211 212 215 220 224 228 232 235 235 235 245 260 271 273 254 234 224 219 222 233 252 288 306 317 330 340 343 345 350 356 1 1 356 348 343 338 335 334 331 329 326 324 323 322 323 325 327 329 331 333 334 336 340 345 346 342 341
196 196 197 198 198 199 201 201 199 198 197 199 202 205 204 197 192 192 195 198 200 202 205 207 206 202 200 201 206 212 214 217 220 224 225 230 236 238 237 237 244 258 271 271 247 225 216 214 222 235 269 310 317 318 320 316 313 320 333 345 352 354 351 348 343 339 337 337 336 333 330 327 324 323 322 322 322 324 326 329 329 329 332 336 339 340 343
202 203 203 204 205 207 207 203 198 196 196 199 203 206 203 196 192 192 196 201 205 207 206 202 198 197 200 205 212 219 222 223 222 220 223 230 235 235 238 244 252 261 269 265 241 220 217 222 229 240 272 309 321 321 311 292 290 300 310 320 330 337 342 344 341 338 340 342 343 342 340 338 334 331 327 324 323 322 321 321 322 324 325 326 329 335 342
207 208 209 211 213 213 208 200 196 195 195 196 201 204 201 195 192 195 202 207 209 209 206 203 202 204 207 211 217 223 224 224 223 222 225 230 227 225 237 253 261 263 263 258 239 220 220 228 235 246 266 295 319 326 301 280 282 290 296 301 309 317 324 331 335 336 337 339 341 344 346 345 342 339 335 330 326 322 317 317 320 321 320 319 318 319 328
209 210 212 214 213 208 199 192 191 193 194 195 198 199 198 196 197 201 205 209 211 209 207 205 207 211 213 215 218 219 219 222 225 226 226 231 236 239 248 258 262 259 256 251 236 224 227 234 241 249 261 276 300 306 287 278 282 288 290 294 299 302 304 309 317 321 322 323 328 334 337 339 341 342 340 338 335 328 321 319 320 319 317 316 312 306 307
210 212 213 209 201 195 193 192 192 194 197 199 199 199 198 199 201 204 207 210 211 209 209 211 215 218 220 221 221 221 221 222 224 225 223 228 236 244 251 254 254 251 251 251 243 235 235 238 242 249 259 271 281 283 280 279 281 285 287 291 294 295 295 297 301 304 307 309 312 316 320 325 332 338 340 340 340 335 329 324 320 317 316 315 313 309 304
211 213 210 201 193 192 194 194 194 197 200 202 202 202 201 201 203 206 209 211 212 213 217 219 220 221 224 225 225 223 220 218 219 225 231 236 237 234 238 246 251 249 244 242 240 240 241 242 244 250 260 270 277 279 281 281 282 284 286 288 289 290 289 288 287 289 293 296 298 301 306 311 317 325 331 334 334 335 334 332 324 313 304 300 300 302 302
207 207 202 195 192 193 195 196 198 202 205 205 204 205 203 202 204 208 211 212 214 217 219 220 220 223 226 227 222 217 216 219 223 229 237 244 244 234 225 229 239 244 238 229 229 239 246 247 247 250 258 268 275 278 278 280 283 285 286 286 287 288 287 286 286 288 288 287 285 288 294 299 302 306 312 318 322 326 330 333 332 326 315 304 298 296 295
203 198 194 192 193 196 198 200 204 207 208 207 208 208 204 202 205 209 211 211 213 215 216 218 221 224 224 222 217 211 211 218 226 230 234 236 237 234 228 224 226 233 235 230 226 232 238 240 243 250 258 266 273 279 284 289 291 290 288 288 288 288 286 285 285 286 283 278 275 279 286 291 292 294 298 303 308 313 318 324 330 331 326 314 302 295 292
198 192 190 192 196 199 202 204 207 209 210 210 209 207 203 202 205 208 210 211 213 216 218 220 222 221 219 216 213 210 210 214 219 225 229 226 221 223 228 228 225 227 230 227 222 223 229 237 248 258 265 269 275 283 290 295 297 296 293 291 291 291 290 287 283 279 273 270 270 275 280 283 285 287 290 291 294 301 307 312 317 320 319 312 299 291 292